This is the latest recevied weather packets stored in our database for station/object KM4KBD. If no packets are shown the sender has not sent any weather packets the latest 10 day(s).
| Time | Temp. | Humidity | Pressure | Rain* | Wind** | Luminosity | Snow |
|---|---|---|---|---|---|---|---|
| 1777985903 | 18.89° C | 61% | 1018 hPa | 0 mm | - | 187 W/m² | - |
| 1777985601 | 18.89° C | 61% | 1017.9 hPa | 0 mm | - | 162 W/m² | - |
| 1777985297 | 18.33° C | 61% | 1017.9 hPa | 0 mm | - | 161 W/m² | - |
| 1777984994 | 18.33° C | 61% | 1017.8 hPa | 0 mm | - | 164 W/m² | - |
| 1777984690 | 18.33° C | 63% | 1017.7 hPa | 0 mm | - | 149 W/m² | - |
| 1777984387 | 17.78° C | 64% | 1017.9 hPa | 0 mm | - | 138 W/m² | - |
| 1777984083 | 17.22° C | 66% | 1017.8 hPa | 0 mm | - | 138 W/m² | - |
| 1777983781 | 17.22° C | 67% | 1017.8 hPa | 0 mm | - | 104 W/m² | - |
| 1777983477 | 16.67° C | 67% | 1017.7 hPa | 0 mm | - | 89 W/m² | - |
| 1777983174 | 16.67° C | 68% | 1017.8 hPa | 0 mm | - | 88 W/m² | - |
| 1777982870 | 16.67° C | 67% | 1017.6 hPa | 0 mm | - | 94 W/m² | - |
| 1777982566 | 16.67° C | 68% | 1017.7 hPa | 0 mm | - | 95 W/m² | - |
| 1777982265 | 16.11° C | 68% | 1018 hPa | 0 mm | - | 73 W/m² | - |
| 1777981963 | 16.11° C | 68% | 1017.9 hPa | 0 mm | - | 60 W/m² | - |
| 1777981660 | 16.11° C | 68% | 1017.8 hPa | 0 mm | - | 55 W/m² | - |
| 1777981356 | 16.11° C | 69% | 1017.7 hPa | 0 mm | - | 48 W/m² | - |
| 1777981053 | 15.56° C | 68% | 1017.7 hPa | 0 mm | - | 47 W/m² | - |
| 1777980749 | 15.56° C | 69% | 1017.9 hPa | 0 mm | - | 38 W/m² | - |
| 1777980445 | 15.56° C | 70% | 1017.7 hPa | 0 mm | - | 33 W/m² | - |
| 1777980143 | 15.56° C | 70% | 1017.8 hPa | 0 mm | - | 30 W/m² | - |
| 1777979843 | 15.56° C | 69% | 1017.6 hPa | 0 mm | - | 30 W/m² | - |
| 1777979539 | 15° C | 69% | 1017.4 hPa | 0 mm | - | 30 W/m² | - |
| 1777979235 | 15° C | 71% | 1017.4 hPa | 0 mm | - | 24 W/m² | - |
| 1777978933 | 15° C | 71% | 1017.3 hPa | 0 mm | - | 20 W/m² | - |
| 1777978629 | 15° C | 71% | 1017.2 hPa | 0 mm | - | 17 W/m² | - |
* Rain latest hour (hover to see other rain measurements)
** Current wind speed in m/s (hover to see current wind gust speed)